Regional Weather Roundup
Issued by NWS

Home | Current Version | Previous Version | Graphics & Text | Print | Product List | Glossary On
Versions: 1 2 3 4 5 6 7 8 9 10 11 12 13 14 15 16 17 18 19 20 21 22 23 24 25 26 27 28 29 30 31 32 33 34 35 36 37 38 39 40 41 42 43 44 45 46 47 48 49 50
000
ASUS43 KDTX 171501
RWRMI
MICHIGAN HOURLY REGIONAL WEATHER ROUNDUP
NATIONAL WEATHER SERVICE DETROIT/PONTIAC MI
1000 AM EST TUE JAN 17 2017

NOTE: "FAIR" INDICATES FEW OR NO CLOUDS BELOW 12,000 FEET WITH NO
SIGNIFICANT WEATHER AND/OR OBSTRUCTION TO VISIBILITY.

MIZ047>049-052>055-059>063-066>070-074>076-081>083-171600-
SOUTHEAST LOWER MICHIGAN

CITY           SKY/WX    TMP DP  RH WIND       PRES   REMARKS
ADRIAN         FOG       36  36 100 CALM      29.77S VSB 1/2
ALMA           LGT RAIN  33  32  98 NE7       29.79F WCI  27
ANN ARBOR      FOG       35  35 100 N5        29.77S VSB 1/2 WCI  31
BAD AXE        LGT SNOW  34  34  99 E9        29.82F WCI  27
CARO           CLOUDY    34  34  99 E8        29.80S WCI  27
DETROIT        LGT RAIN  37  36  96 NW7       29.78F VSB 1/8 WCI  32
FLINT          CLOUDY    36  35  96 NE5       29.78R FOG     WCI  32
GROSSE ILE     MIX PCPN  38  38  99 CALM      29.75F VSB 1/4
HILLSDALE      FOG       37  37 100 S5        29.75R VSB<1/4 WCI  34
HOWELL         FOG       36  35  96 SE7       29.75S VSB 1/2 WCI  30

CITY           SKY/WX    TMP DP  RH WIND       PRES   REMARKS
JACKSON        FOG       37  37 100 S5        29.75S VSB 1/2 WCI  33
LAMBERTVILLE   FOG       47  46  95 S3        29.77R VSB 1/2
LANSING        FOG       36  34  92 N5        29.77R VSB 1/2 WCI  32
LAPEER         CLOUDY    33  33 100 E3        29.78S FOG
MASON          FOG       36  36 100 CALM      29.75S VSB 3/4
MONROE         RAIN      42  42 100 S5        29.76F VSB 1/2
MT. CLEMENS    FOG       36  36 100 VRB1      29.77R VSB 5/16
PONTIAC        FOG       33  31  92 E5        29.76S VSB 1/4 WCI  29
PORT HOPE        N/A     35  34  96 E16       29.83F WCI  25
PORT HURON     CLOUDY    37  37 100 E6        29.79F FOG     WCI  33
TRI CITIES     CLOUDY    34  34 100 NE8       29.81S FOG     WCI  27
MIDLAND        CLOUDY    34  32  94 NE7       29.81R WCI  28
TROY           FOG       35  33  94 NE3       29.80S VSB 3/4
SAGINAW HB     MIX PCPN  34  32  93 NE6       29.79F WCI  29
$$
MIZ043>046-050>051-056>058-064>065-071>073-077>080-171600-
SOUTHWEST LOWER MICHIGAN

CITY           SKY/WX    TMP DP  RH WIND       PRES   REMARKS
BATTLE CREEK   FOG       42  42 100 SW5       29.76R VSB 3/4
BENTON HARBOR  FOG       39  37  92 SW16      29.81R VSB 1   WCI  30
BIG RAPIDS     MIX PCPN  33  32  95 E7        29.78F WCI  27
COLDWATER      CLOUDY    47  47 100 SW14      29.76R FOG
FREMONT        CLOUDY    34  34 100 E7        29.77S WCI  28
HOLLAND        CLOUDY    37  35  92 E5        29.75R FOG     WCI  33
GRAND RAPIDS   CLOUDY    34  33  96 E8        29.76S FOG     WCI  27
IONIA          MIX PCPN  33  33 100 NE7       29.77S WCI  26
KALAMAZOO      FOG       44  42  93 W13       29.77R VSB 1/2
LUDINGTON      CLOUDY    35  34  98 NE3       29.80R
MARSHALL       FOG       40  39  97 CALM      29.75R VSB 1/2
MOUNT PLEASANT CLOUDY    33  32  98 NE5       29.80S WCI  28
MUSKEGON       CLOUDY    37  35  92 E6        29.77R WCI  32
SOUTH HAVEN    FOG       39  38  99 SW13G20   29.77R VSB 1   WCI  31
$$
MIZ016>042-171600-
NORTHERN LOWER MICHIGAN

CITY           SKY/WX    TMP DP  RH WIND       PRES   REMARKS
ALPENA         LGT RAIN  34  30  85 E12       29.91F WCI  25
BELLAIRE       CLOUDY    37  34  89 NE10      29.84F WCI  30
CADILLAC       MIX PCPN  33  32  96 E9        29.78S WCI  25
CHARLEVOIX     CLOUDY    34  33  99 NE9       29.89S WCI  26
FRANKFORT      CLOUDY    36  35  94 E3        29.82R
GAYLORD        CLOUDY    34  30  85 E10       29.83F FOG     WCI  26
GRAYLING       CLOUDY    34  33  96 E13       29.82F FOG     WCI  25
HARBOR SPRINGS CLOUDY    33  32  96 NE13G18   29.87F FOG     WCI  24
HOUGHTON LAKE  LGT RAIN  34  32  92 E10       29.81F WCI  26
MANISTEE       CLOUDY    35  34  96 E3        29.80S
OSCODA         MIX PCPN  36  34  95 NE9       29.88S WCI  29
PELLSTON       LGT RAIN  34  30  85 E12       29.90F WCI  25
ROGERS CITY    LGT SNOW  34  32  92 E14G20    29.93F WCI  25
TRAVERSE CITY  CLOUDY    36  33  89 E5        29.82S WCI  32
$$
MIZ007>008-015-171600-
EASTERN UPPER MICHIGAN

CITY           SKY/WX    TMP DP  RH WIND       PRES   REMARKS
KINROSS        CLOUDY    29  26  89 E9        29.95F WCI  20
MACKINAC ISLAN CLOUDY    33  33 100 E16G24    29.92F FOG     WCI  22
NEWBERRY       CLOUDY    27  26  96 NE5       29.94S WCI  21
S. S. MARIE    CLOUDY    31  24  75 E6        29.96F WCI  25
MUNISING         N/A     27  22  81 CALM      29.94S
$$
MIZ004>006-011>014-085-171600-
CENTRAL UPPER MICHIGAN

CITY           SKY/WX    TMP DP  RH WIND       PRES   REMARKS
MANISTIQUE     MIX PCPN  31  30  97 NE8       29.91F WCI  23
ESCANABA       LGT SNOW  31  30  96 N9        29.90F FOG     WCI  23
SAWYER-GWINN   CLOUDY    28  23  80 CALM      29.92S
$$
MIZ001>003-009>011-084-171600-
WESTERN UPPER MICHIGAN

CITY           SKY/WX    TMP DP  RH WIND       PRES   REMARKS
IRON MOUNTAIN  CLOUDY    30  22  72 N3        29.88F
HOUGHTON       CLOUDY    31  27  85 E5        29.92R WCI  26
COPPER HARBOR    N/A     32  28  85 CALM      29.94S
IRONWOOD       CLOUDY    23  20  88 CALM      29.93R
$$

ABBREVIATIONS USED IN REMARKS
   TC - TEMPERATURE IN CELSIUS
  WCI - WIND CHILL INDEX
   HX - HEAT INDEX
  VSB - VISIBILITY




USA.gov is the U.S. government's official web portal to all federal, state and local government web resources and services.